DW4559 Weather Reports


time (UTC)temp
C
wind
direction
speed
KPH
gust
KPH
rain 1hr
cm
rain 24hr
cm
rain mn
cm
humidity
%
barometer
mb
20260509135404 16 152 1.6 4.8 0.00 0.00 0.00 74 1007.5
20260509134904 16 136 1.6 8.0 0.00 0.00 0.00 73 1007.5
20260509134404 15 330 0.0 3.2 0.00 0.00 0.00 73 1007.5
20260509133904 15 316 1.6 3.2 0.00 0.00 0.00 74 1007.5
20260509133404 15 323 1.6 8.0 0.00 0.00 0.00 75 1007.5
20260509132404 15 345 1.6 4.8 0.00 0.00 0.00 76 1007.5
20260509131904 15 329 0.0 3.2 0.00 0.00 0.00 77 1007.6
20260509130904 15 71 1.6 4.8 0.00 0.00 0.00 75 1007.6
20260509130404 15 321 1.6 4.8 0.00 0.00 0.00 75 1007.7
20260509125904 15 323 0.0 8.0 0.00 0.00 0.00 74 1007.6
20260509125404 15 71 1.6 8.0 0.00 0.00 0.00 74 1007.6
20260509124904 15 354 0.0 3.2 0.00 0.00 0.00 75 1007.7
20260509124404 15 325 1.6 4.8 0.00 0.00 0.00 76 1007.7
20260509123904 14 140 1.6 3.2 0.00 0.00 0.00 79 1007.8
20260509123404 13 166 1.6 1.6 0.00 0.00 0.00 81 1007.7
20260509122904 13 344 0.0 1.6 0.00 0.00 0.00 82 1007.8
20260509122404 13 304 0.0 1.6 0.00 0.00 0.00 82 1007.7
20260509121904 13 27 0.0 3.2 0.00 0.00 0.00 84 1007.8
20260509121404 13 338 0.0 3.2 0.00 0.00 0.00 85 1007.9
20260509120404 12 142 1.6 1.6 0.00 0.00 0.00 85 1007.9
20260509115904 12 348 0.0 1.6 0.00 0.00 0.00 87 1007.9
20260509115405 12 129 0.0 3.2 0.00 0.00 0.00 88 1008.1
20260509114904 12 100 0.0 1.6 0.00 0.00 0.00 88 1008.0
20260509114404 12 335 0.0 1.6 0.00 0.00 0.00 88 1008.0
20260509113904 12 127 0.0 0.0 0.00 0.00 0.00 89 1008.0
20260509113404 11 127 0.0 3.2 0.00 0.00 0.00 88 1008.0
20260509112404 11 138 0.0 1.6 0.00 0.00 0.00 91 1008.0
20260509111404 11 137 0.0 3.2 0.00 0.00 0.00 93 1008.0
20260509110904 11 121 0.0 1.6 0.00 0.00 0.00 93 1007.9
20260509110404 11 122 0.0 3.2 0.00 0.00 0.00 94 1007.9
20260509105903 11 118 0.0 3.2 0.00 0.00 0.00 94 1007.9
20260509105404 10 106 1.6 1.6 0.00 0.00 0.00 95 1007.8
20260509104904 10 83 0.0 1.6 0.00 0.00 0.00 96 1007.8
20260509104404 10 314 0.0 0.0 0.00 0.00 0.00 96 1007.8
20260509103904 10 314 0.0 0.0 0.00 0.00 0.00 96 1007.7
20260509102904 10 314 0.0 0.0 0.00 0.00 0.00 96 1007.6
20260509101904 10 141 0.0 0.0 0.00 0.00 0.00 96 1007.4
20260509101404 10 141 0.0 0.0 0.00 0.00 0.00 96 1007.5
20260509100904 10 141 0.0 0.0 0.00 0.00 0.00 96 1007.4
20260509095904 10 130 0.0 0.0 0.00 0.00 0.00 96 1007.4
20260509095404 10 130 0.0 0.0 0.00 0.00 0.00 96 1007.4
20260509094904 10 130 0.0 0.0 0.00 0.00 0.00 96 1007.4
20260509094404 10 130 0.0 0.0 0.00 0.00 0.00 96 1007.4
20260509093904 10 130 0.0 0.0 0.00 0.00 0.00 96 1007.5
20260509093404 10 130 0.0 1.6 0.00 0.00 0.00 96 1007.4
20260509092904 10 53 0.0 1.6 0.00 0.00 0.00 96 1007.4
20260509092403 10 34 0.0 0.0 0.00 0.00 0.00 96 1007.3
20260509091904 10 34 0.0 0.0 0.00 0.00 0.00 96 1007.3
20260509091404 10 34 0.0 0.0 0.00 0.00 0.00 96 1007.1
20260509090904 10 34 0.0 0.0 0.00 0.00 0.00 96 1007.1
20260509090403 10 34 0.0 0.0 0.00 0.00 0.00 95 1007.3
20260509084904 10 42 0.0 0.0 0.00 0.00 0.00 95 1007.5
20260509084403 10 42 0.0 1.6 0.00 0.00 0.00 95 1007.5
20260509083419 10 45 0.0 0.0 0.00 0.00 0.00 95 1007.6
20260509082904 10 45 0.0 0.0 0.00 0.00 0.00 95 1007.6
20260509082404 10 45 0.0 0.0 0.00 0.00 0.00 95 1007.6
20260509081904 10 45 0.0 1.6 0.00 0.00 0.00 94 1007.7
20260509080904 10 138 0.0 0.0 0.00 0.00 0.00 94 1007.7
20260509080404 10 138 1.6 1.6 0.00 0.00 0.00 94 1007.5
20260509075904 10 151 0.0 1.6 0.00 0.00 0.00 94 1007.5
20260509075403 10 151 0.0 3.2 0.00 0.00 0.00 95 1007.5
20260509074904 10 38 0.0 1.6 0.00 0.00 0.00 94 1007.5
20260509072904 10 40 0.0 0.0 0.00 0.00 0.00 94 1007.4
20260509072404 10 40 0.0 0.0 0.00 0.00 0.00 94 1007.4
20260509071904 10 40 0.0 0.0 0.00 0.00 0.00 94 1007.4
20260509071404 10 40 0.0 0.0 0.00 0.00 0.00 93 1007.4
20260509070904 10 40 0.0 1.6 0.00 0.00 0.00 93 1007.4
20260509070403 10 66 0.0 1.6 0.00 0.00 0.00 92 1007.5
20260509065903 10 138 0.0 0.0 0.00 0.00 0.00 92 1007.7
20260509065404 10 138 0.0 0.0 0.00 0.00 0.00 91 1007.7
20260509064904 10 138 0.0 0.0 0.00 0.00 0.00 90 1007.6
20260509064404 10 138 0.0 1.6 0.00 0.00 0.00 89 1007.9
20260509063904 10 131 0.0 0.0 0.00 0.00 0.00 89 1008.0
20260509063404 10 131 0.0 3.2 0.00 0.00 0.00 88 1008.1
20260509062904 10 129 0.0 0.0 0.00 0.00 0.00 88 1008.0
20260509062404 10 129 0.0 0.0 0.00 0.00 0.00 88 1008.0
20260509061904 10 129 0.0 0.0 0.00 0.00 0.00 88 1007.9
20260509060904 10 119 0.0 1.6 0.00 0.00 0.00 88 1008.0
20260509060404 10 117 0.0 0.0 0.00 0.00 0.00 88 1008.0
20260509055904 10 117 0.0 3.2 0.00 0.00 0.00 88 1008.0
20260509055404 10 44 0.0 3.2 0.00 0.00 0.00 88 1008.0
20260509054903 10 357 0.0 0.0 0.00 0.00 0.00 88 1008.0
20260509054403 10 357 0.0 0.0 0.00 0.00 0.00 88 1007.9
20260509053904 10 357 0.0 0.0 0.00 0.00 0.00 88 1007.9
20260509053403 9 357 0.0 1.6 0.00 0.00 0.00 87 1007.9
20260509052904 9 134 0.0 1.6 0.00 0.00 0.00 88 1007.9
20260509052404 9 0 0.0 0.0 0.00 0.00 0.00 90 1007.8
20260509051904 9 0 0.0 1.6 0.00 0.00 0.00 90 1007.8
20260509051403 8 27 0.0 0.0 0.00 0.00 0.00 90 1007.8
20260509050403 9 27 0.0 0.0 0.00 0.00 0.00 90 1008.0
20260509045904 9 27 0.0 0.0 0.00 0.00 0.00 89 1008.0
20260509045404 9 27 0.0 0.0 0.00 0.00 0.00 88 1008.0
20260509044904 9 27 0.0 0.0 0.00 0.00 0.00 87 1007.9
20260509044403 10 27 0.0 0.0 0.00 0.00 0.00 86 1007.9
20260509043904 10 10 0.0 1.6 0.00 0.00 0.00 85 1007.8
20260509043403 10 333 0.0 0.0 0.00 0.00 0.00 84 1007.8
20260509042405 10 333 0.0 0.0 0.00 0.00 0.00 83 1007.8
20260509041903 10 333 0.0 0.0 0.00 0.00 0.00 83 1007.9
20260509041404 10 333 0.0 0.0 0.00 0.00 0.00 82 1008.0
20260509040903 11 333 0.0 0.0 0.00 0.00 0.00 82 1008.0
20260509035904 11 333 0.0 0.0 0.00 0.00 0.00 82 1008.1
20260509034904 11 333 0.0 0.0 0.00 0.00 0.00 82 1008.2
20260509034404 11 333 0.0 0.0 0.00 0.00 0.00 81 1008.2
20260509033904 11 333 0.0 0.0 0.00 0.00 0.00 81 1008.1
20260509032904 11 338 0.0 0.0 0.00 0.00 0.00 81 1008.2
20260509032404 11 0 0.0 1.6 0.00 0.00 0.00 81 1008.2
20260509031404 11 31 0.0 0.0 0.00 0.00 0.00 82 1008.2
20260509030904 11 31 0.0 0.0 0.00 0.00 0.00 82 1008.2
20260509030404 11 31 0.0 0.0 0.00 0.00 0.00 82 1008.2
20260509025904 11 31 0.0 0.0 0.00 0.00 0.00 82 1008.2
20260509025404 11 31 0.0 0.0 0.00 0.00 0.00 82 1008.2
20260509024904 11 20 0.0 1.6 0.00 0.00 0.00 83 1008.1
20260509024404 11 5 0.0 1.6 0.00 0.00 0.00 82 1008.1
20260509023904 10 14 0.0 1.6 0.00 0.00 0.00 83 1008.1
20260509023404 10 354 0.0 0.0 0.00 0.00 0.00 83 1008.2
20260509022903 10 354 0.0 3.2 0.00 0.00 0.00 83 1008.3
20260509022404 10 33 0.0 1.6 0.00 0.00 0.00 84 1008.2
20260509021903 10 102 0.0 0.0 0.00 0.00 0.00 84 1008.1
20260509021404 10 102 0.0 1.6 0.00 0.00 0.00 84 1008.1
20260509020903 10 73 0.0 1.6 0.00 0.00 0.00 84 1008.1
20260509020403 10 89 0.0 0.0 0.00 0.00 0.00 84 1008.1
20260509015904 10 89 0.0 1.6 0.00 0.00 0.00 83 1008.0
20260509015403 10 118 0.0 3.2 0.00 0.00 0.00 84 1008.0
20260509014904 10 179 0.0 0.0 0.00 0.00 0.00 84 1007.9
20260509014403 10 179 0.0 0.0 0.00 0.00 0.00 84 1007.8
20260509013904 10 179 0.0 0.0 0.00 0.00 0.00 84 1007.8
20260509013404 10 179 0.0 0.0 0.00 0.00 0.00 85 1007.8
20260509011904 10 179 0.0 0.0 0.00 0.00 0.00 83 1007.7
20260509011403 10 179 0.0 1.6 0.00 0.00 0.00 82 1007.5
20260509010904 10 140 0.0 0.0 0.00 0.00 0.00 81 1007.5
20260509010404 10 140 0.0 1.6 0.00 0.00 0.00 81 1007.5
20260509005903 10 322 0.0 1.6 0.00 0.00 0.00 80 1007.4
20260509004905 10 119 0.0 1.6 0.00 0.00 0.00 79 1007.3
20260509004404 10 128 0.0 0.0 0.00 0.00 0.00 78 1007.2
20260509003905 11 128 0.0 0.0 0.00 0.00 0.00 77 1007.1
20260509003405 11 128 0.0 1.6 0.00 0.00 0.00 76 1007.1
20260509002905 11 67 1.6 3.2 0.00 0.00 0.00 76 1006.9
20260509002405 11 45 0.0 4.8 0.00 0.00 0.00 75 1007.0
20260509001905 11 332 0.0 0.0 0.00 0.00 0.00 74 1006.9
20260509001405 11 332 0.0 1.6 0.00 0.00 0.00 73 1006.8
20260509000905 12 116 0.0 1.6 0.00 0.00 0.00 72 1006.8
20260509000405 12 73 0.0 1.6 0.00 0.00 0.00 71 1006.8
20260508235904 12 17 0.0 3.2 0.00 0.00 0.00 70 1006.7
20260508234905 12 332 0.0 3.2 0.00 0.00 0.00 69 1006.6
20260508233905 13 343 0.0 1.6 0.00 0.00 0.00 68 1006.6
20260508233405 13 299 0.0 3.2 0.00 0.00 0.00 67 1006.4
20260508232904 13 348 0.0 3.2 0.00 0.00 0.00 66 1006.3
20260508232405 13 345 0.0 3.2 0.00 0.00 0.00 66 1006.2
20260508231905 13 311 1.6 3.2 0.00 0.00 0.00 64 1006.2
20260508231404 13 356 0.0 3.2 0.00 0.00 0.00 62 1006.2
20260508230904 13 135 1.6 9.7 0.00 0.00 0.00 56 1006.2
20260508225905 13 299 3.2 8.0 0.00 0.00 0.00 56 1006.1
20260508225405 14 322 4.8 12.9 0.00 0.00 0.00 56 1006.1
20260508224905 14 318 1.6 8.0 0.00 0.00 0.00 56 1006.0
20260508224405 13 340 3.2 9.7 0.00 0.00 0.00 56 1006.0
20260508223905 13 316 3.2 11.3 0.00 0.00 0.00 56 1005.9
20260508223404 13 311 1.6 4.8 0.00 0.00 0.00 57 1005.9
20260508222905 13 344 3.2 8.0 0.00 0.00 0.00 56 1006.0
20260508222405 13 329 3.2 9.7 0.00 0.00 0.00 57 1006.0
20260508221904 13 313 4.8 14.5 0.00 0.00 0.00 57 1006.0
20260508221405 14 309 4.8 14.5 0.00 0.00 0.00 56 1006.0
20260508220905 13 306 3.2 9.7 0.00 0.00 0.00 57 1006.1
20260508215405 13 316 4.8 11.3 0.00 0.00 0.00 58 1006.2
20260508214905 14 317 3.2 12.9 0.00 0.00 0.00 56 1006.2
20260508213905 14 319 1.6 8.0 0.00 0.00 0.00 57 1006.2
20260508213405 14 305 3.2 8.0 0.00 0.00 0.00 56 1006.2
20260508212405 14 280 3.2 11.3 0.00 0.00 0.00 56 1006.2
20260508211905 14 295 3.2 11.3 0.00 0.00 0.00 56 1006.2
20260508211405 14 321 4.8 8.0 0.00 0.00 0.00 56 1006.2
20260508210904 14 327 6.4 12.9 0.00 0.00 0.00 55 1006.2
20260508210405 14 322 3.2 9.7 0.00 0.00 0.00 56 1006.1
20260508205904 14 337 4.8 11.3 0.00 0.00 0.00 55 1006.1
20260508205405 15 285 4.8 11.3 0.00 0.00 0.00 54 1006.2
20260508204905 15 317 3.2 9.7 0.00 0.00 0.00 53 1006.2
20260508203904 15 331 3.2 12.9 0.00 0.00 0.00 53 1006.0
20260508203405 15 325 4.8 12.9 0.00 0.00 0.00 52 1005.9
20260508202905 15 336 4.8 12.9 0.00 0.00 0.00 52 1005.8
20260508201904 15 318 4.8 16.1 0.00 0.00 0.00 53 1005.8
20260508201405 15 316 3.2 11.3 0.00 0.00 0.00 52 1005.9
20260508200905 15 322 4.8 11.3 0.00 0.00 0.00 53 1006.0
20260508200404 13 346 4.8 9.7 0.00 0.00 0.00 57 1006.1
20260508195904 13 340 4.8 8.0 0.00 0.00 0.00 58 1006.2
20260508195405 14 313 4.8 11.3 0.00 0.00 0.00 56 1006.1
20260508194905 14 334 6.4 12.9 0.00 0.00 0.00 53 1006.2
20260508194404 14 338 4.8 9.7 0.00 0.00 0.00 53 1006.1
20260508193404 15 336 6.4 19.3 0.00 0.00 0.00 52 1005.9
20260508192905 15 336 4.8 11.3 0.00 0.00 0.00 51 1005.8
20260508191905 16 324 3.2 12.9 0.00 0.00 0.00 48 1005.5
20260508191405 16 319 6.4 12.9 0.00 0.00 0.00 47 1005.4
20260508190905 16 316 6.4 14.5 0.00 0.00 0.00 47 1005.5
20260508190405 15 330 4.8 16.1 0.00 0.00 0.00 46 1005.5
20260508185905 15 323 8.0 14.5 0.00 0.00 0.00 46 1005.5
20260508184904 16 318 6.4 12.9 0.00 0.00 0.00 44 1005.5
20260508184405 16 326 8.0 14.5 0.00 0.00 0.00 45 1005.4
20260508183905 16 336 4.8 14.5 0.00 0.00 0.00 45 1005.4
20260508183406 16 342 4.8 12.9 0.00 0.00 0.00 45 1005.4
20260508182904 16 331 6.4 12.9 0.00 0.00 0.00 45 1005.5
20260508181405 16 316 4.8 14.5 0.00 0.00 0.00 46 1005.4
20260508180905 16 327 9.7 20.9 0.00 0.00 0.00 45 1005.3
20260508180404 16 310 3.2 11.3 0.00 0.00 0.00 48 1005.4
20260508175905 16 326 4.8 19.3 0.00 0.00 0.00 48 1005.5
20260508174904 16 317 4.8 14.5 0.00 0.00 0.00 48 1005.4
20260508174404 16 314 4.8 16.1 0.00 0.00 0.00 46 1005.4
20260508173405 17 309 6.4 14.5 0.00 0.00 0.00 46 1005.4
20260508172405 16 313 8.0 14.5 0.00 0.00 0.00 46 1005.5
20260508171905 16 349 4.8 9.7 0.00 0.00 0.00 47 1005.5
20260508170904 16 353 4.8 11.3 0.00 0.00 0.00 45 1005.5
20260508170405 16 328 4.8 19.3 0.00 0.00 0.00 47 1005.5
20260508165905 16 327 8.0 14.5 0.00 0.00 0.00 46 1005.6
20260508165405 16 331 4.8 11.3 0.00 0.00 0.00 46 1005.8
20260508164405 15 320 3.2 14.5 0.00 0.00 0.00 46 1006.0
20260508163904 16 322 4.8 14.5 0.00 0.00 0.00 46 1006.1
20260508161905 16 332 3.2 11.3 0.00 0.00 0.00 45 1006.1
20260508161405 16 341 4.8 12.9 0.00 0.00 0.00 44 1006.2
20260508160904 16 336 4.8 11.3 0.00 0.00 0.00 42 1006.2
20260508160405 16 328 4.8 11.3 0.00 0.00 0.00 42 1006.3
20260508155404 16 333 4.8 12.9 0.00 0.00 0.00 44 1006.5
20260508154905 16 326 3.2 11.3 0.00 0.00 0.00 44 1006.4
20260508154404 15 314 4.8 14.5 0.00 0.00 0.00 47 1006.4
20260508153405 15 337 3.2 11.3 0.00 0.00 0.00 46 1006.5
20260508152405 15 332 4.8 14.5 0.00 0.00 0.00 53 1006.6
20260508151905 15 348 4.8 11.3 0.00 0.00 0.00 51 1006.6
20260508151404 14 353 4.8 9.7 0.00 0.00 0.00 52 1006.7
20260508150904 15 318 4.8 11.3 0.00 0.00 0.00 49 1006.7
20260508150405 14 291 3.2 12.9 0.00 0.00 0.00 52 1006.6
20260508145905 14 320 4.8 12.9 0.00 0.00 0.00 48 1006.6
20260508145404 14 332 6.4 12.9 0.00 0.00 0.00 45 1006.6
20260508144905 14 330 4.8 14.5 0.00 0.00 0.00 49 1006.6
20260508144404 13 306 3.2 12.9 0.00 0.00 0.00 52 1006.6
20260508143905 14 290 4.8 16.1 0.00 0.00 0.00 50 1006.6
20260508142904 13 356 4.8 9.7 0.00 0.00 0.00 54 1006.5
20260508142405 13 0 3.2 12.9 0.00 0.00 0.00 59 1006.5
20260508141904 13 307 3.2 12.9 0.00 0.00 0.00 60 1006.6
20260508141404 13 344 3.2 11.3 0.00 0.00 0.00 61 1006.6
20260508140905 13 311 4.8 11.3 0.00 0.00 0.00 62 1006.6
20260508140405 13 293 4.8 11.3 0.00 0.00 0.00 62 1006.6
20260508135905 12 347 3.2 4.8 0.00 0.00 0.00 63 1006.5